www.pogodaiklimat.ru

Погода и климат >> Архив погоды >> Мексика >> Ciudad Constitucion


ПОГОДА в Ciudad Constitucion

  • Прогноз погоды в Ciudad Constitucion
  • Монитор погоды в Ciudad Constitucion
  • Климат города

АРХИВ ПОГОДЫ в Ciudad Constitucion

Время (UTC), дата Ветер
(напр.,м/с)
 
Видим.   Явления Облачность Т
(С)
Тd
(С)
f
(%)
Тe
(С)
Тes
(С)
Комфортность P
(гПа)
Po
(гПа)
Тmin
(С)
Tmax
(С)
R
(мм)
R24
(мм)
S
(см)
18 17.09 ЮВ 2 12 км мгла {туман} 8/0
[Cs]
+33.0 +21.9 52 +41 +55 опасность
перегрева
1010.0 1004.4 +22.8 +33.8
21 17.09 СВ 2 12 км мгла {туман} 6/4 1000 м
[Cu hum Cs]
+37.8 +18.4 32 +42 +50 опасность
перегрева
1006.8 1001.4
00 18.09 СЗ 8 100 м сильная пыльная буря {туман} 1/1 600 м
[Cu hum]
+35.2 +15.1 30 +37 +37 очень
душно
1006.5 1001.1 +22.8 +40.0
03 18.09 СВ 4 400 м 1/1 1000 м
[Cb calv Ac trans]
+20.8 +19 +19 1007.9 1002.5
06 18.09 ЮВ 2 5000 м 5/0 2000 м
[Ac trans]
+29.2 +21.5 63 +37 +37 очень
душно
1009.8 1004.2 +22.8 +40.0
09 18.09 В 1 5000 м ясно +28.8 +23.3 72 +39 +39 очень
душно
1008.4 1003.0
12 18.09 штиль 0 5000 м ясно +27.0 +22.6 77 +36 +36 очень
душно
1007.7 1002.3 +25.7 +40.0
15 18.09 СВ 3 10 км мгла {туман} 1/1 1000 м
[Cu hum]
+29.6 +23.8 71 +41 +43 опасность
перегрева
1008.7 1003.2
18 18.09 В 5 10 км мгла {туман} 6/6 1000 м
[Cu med, cong]
+34.4 +23.2 52 +45 +48 опасность
перегрева
1008.2 1002.8 +25.0 +35.4
21 18.09 СВ 4 12 км в посл. час дождь {туман} 8/8 1000 м
[Cu Sc]
+30.8 +25.8 75 +46 +48 опасность
перегрева
1005.8 1000.4 2
00 19.09 С 2 5000 м в посл. час дождь 10/10 600 м
[Cb cap]
+25.0 +24.7 98 +35 +35 очень
душно
1006.5 1001.1 71
03 19.09 С 1 5000 м слабая морось 10/10 1000 м
[Frnb]
+25.2 +24.2 94 +35 +35 очень
душно
1007.4 1001.9 2
06 19.09 В 2 5000 м слабая морось 9/9 600 м
[St]
+25.6 +25.3 98 +37 +37 очень
душно
1008.0 1002.5 2
09 19.09 В 2 5000 м 6/0
[Ac trans]
+25.2 +24.6 96 +35 +35 очень
душно
1007.4 1001.8
12 19.09 В 1 5000 м 9/9 840 м
[St]
+25.0 +24.7 98 +35 +35 очень
душно
1006.4 1000.9 +24.0 +36.8
15 19.09 Ю 1 8000 м слабая морось {туман} 9/9 840 м
[Frnb]
+25.2 +24.9 98 +36 +36 очень
душно
1006.6 1001.1 0.2
18 19.09 ЮЗ 3 10 км мгла {туман} 8/8 600 м
[Cu med, cong]
+29.6 +26.0 81 +44 +47 опасность
перегрева
1007.4 1001.8 0.2
21 19.09 ЮЗ 5 10 км мгла {туман} 8/8 1000 м
[Cu med, cong]
+30.4 +25.0 73 +44 +45 опасность
перегрева
1005.1 999.6
00 20.09 ЮЗ 5 8000 м мгла {туман} 9/5 600 м
[Sc diur, vesp Cs]
+30.2 +22.9 65 +40 +41 очень
душно
1004.9 999.5 +23.6 +32.0
03 20.09 ЮЗ 2 5000 м 8/4 1000 м
[Sc diur, vesp Cs]
+28.2 +23.3 75 +38 +38 очень
душно
1006.6 1001.2
06 20.09 ЮЗ 1 5000 м 6/0 2000 м
[Ac und]
+25.0 +23.5 91 +34 +34 очень
душно
1008.3 1002.9 +23.6 +32.0
09 20.09 ЮЗ 1 5000 м ясно +24.2 +23.3 95 +32 +32 очень
душно
1008.3 1002.8
12 20.09 штиль 0 5000 м 1/1 840 м
[St]
+23.4 +23.1 98 +33 +33 очень
душно
1008.8 1003.3 +22.2 +32.0
15 20.09 ЮЗ 1 10 км мгла {туман} 4/4 840 м
[St]
+25.0 +22.6 87 +33 +35 очень
душно
1010.1 1004.5
18 20.09 ЮЗ 1 10 км мгла {туман} ясно +29.2 +21.5 63 +37 +55 опасность
солнечного
удара
1010.6 1005.0 +22.0 +29.6
21 20.09 ЮЗ 3 10 км мгла {туман} ясно +34.0 +20.6 46 +41 +54 опасность
перегрева
1010.0 1004.4
00 21.09 ЮЗ 4 8000 м мгла {туман} 1/1 600 м
[Cu hum]
+31.0 +20.1 52 +37 +39 очень
душно
1009.7 1004.3 +22.0 +34.5
03 21.09 З 4 5000 м ясно +25.2 +20.6 76 +31 +31 очень
душно
1011.6 1006.2
06 21.09 З 1 5000 м ясно +23.4 +21.6 90 +32 +32 очень
душно
1012.2 1006.7 +22.0 +34.5
15 21.09 СЗ 3 10 км мгла {туман} 5/0
[Cs]
+23.6 +21.5 88 +30 +32 очень
душно
1012.5 1006.9
18 21.09 З 3 10 км мгла {туман} 4/0
[Cs]
+30.4 +19.8 53 +37 +48 очень
душно
1011.9 1006.4 +20.6 +30.6
21 21.09 С 2 10 км мгла {туман} 3/1 1000 м
[Cu med, cong Cs]
+35.6 +19.3 38 +40 +53 опасность
солнечного
удара
1010.1 1004.6
00 22.09 З 5 10 км мгла {туман} 1/1 600 м
[Cu med, cong]
+32.4 +18.2 43 +37 +38 очень
душно
1009.7 1004.2 +20.6 +36.5
15 22.09 штиль 0 8000 м мгла {туман} 4/4 840 м
[St]
+24.4 +22.9 91 +32 +34 очень
душно
1011.5 1005.9
18 22.09 ЮЗ 2 10 км мгла {туман} 1/1 1000 м
[Cu hum]
+31.8 +20.7 52 +39 +53 опасность
солнечного
удара
1011.2 1005.6 +22.8 +32.0
21 22.09 Ю 1 12 км мгла {туман} 1/1 1000 м
[Cu hum]
+36.4 +19.6 37 +41 +57 опасность
перегрева
1008.5 1003.1
00 23.09 З 6 8000 м мгла {туман} 1/1 600 м
[Cu med, cong]
+32.4 +20.4 49 +39 +40 очень
душно
1007.3 1001.9 +22.8 +36.5
12 23.09 штиль 0 5000 м ясно +23.4 +22.2 93 +32 +32 очень
душно
1009.2 1003.7 +22.3 +36.5
15 23.09 ЮЗ 1 10 км мгла {туман} ясно +24.6 +22.5 88 +32 +35 очень
душно
1010.5 1004.9
18 23.09 З 1 10 км мгла {туман} ясно +31.8 +21.8 55 +40 +58 опасность
солнечного
удара
1009.8 1004.2 +22.2 +32.2
21 23.09 З 4 8000 м мгла {туман} 1/0
[Cs]
+36.2 +19.8 38 +42 +51 опасность
перегрева
1007.5 1002.0
00 24.09 З 5 10 км мгла {туман} 3/1 600 м
[Cu hum Cs]
+33.6 +17.0 37 +37 +38 очень
душно
1006.6 1001.1 +22.2 +36.8
03 24.09 З 3 5000 м 1/0
[Cs]
+26.6 +20.2 68 +33 +33 очень
душно
1007.8 1002.4
06 24.09 ЮЗ 1 5000 м ясно +24.6 +22.2 87 +32 +32 очень
душно
1009.3 1003.9 +22.2 +36.8
09 24.09 штиль 0 5000 м ясно +23.6 +22.1 91 +30 +30 очень
душно
1008.9 1003.4
12 24.09 ЮВ 1 5000 м ясно +22.8 +21.7 94 +31 +31 очень
душно
1008.5 1002.9 +21.8 +36.8

 

Местоположение метеостанции Ciudad Constitucion (Мексика): широта 24.95 долгота -111.70 высота над уровнем моря 48 м.

В архиве по умолчанию представлена погода в Ciudad Constitucion за последнюю неделю. Архивные данные за месяц целиком и за предыдущие месяцы, начиная с января 2011 года, Вы можете получить, выбрав интересующий диапазон дат из раскрывающегося списка и нажав кнопку "Ввод!".


*Определитесь, кто Вы:
робот инопланетянин человек

Внимание! Время в таблицах - всемирное. Для получения местного времени необходимо прибавить поправку, которая в Ciudad Constitucion равна -6 ч.

Смотрите также архив погоды в соседних городах и на ближайших метеорологических станциях:

Погода в Loreto (Мексика) (126 км)
Погода в La Paz (Мексика) (166 км)
Погода в Santa Rosalia (Мексика) (265 км)
Погода в Ciudad Obregon (Мексика) (329 км)
Погода в Guaymas (Мексика) (340 км)
Погода в Empalme (Мексика) (348 км)
Погода в Choix (Мексика) (402 км)
Погода в Culiacan (Мексика) (434 км)
Погода в Hermosillo (Мексика) (465 км)
Погода в Hermosillo la Magna (Мексика) (465 км)

Пояснения к столбцам:

Ветер - указаны скорость ветра в м/с - средняя за 10 мин, порывы в срок и между сроками (в фигурных скобках) и направление, откуда дует ветер: С - северный, СВ - северо-восточный, В - восточный, ЮВ - юго-восточный, Ю - южный, ЮЗ - юго-западный, З - западный, СЗ - северо-западный.
Видимость - горизонтальная дальность видимости в метрах или километрах. При видимости от 1 до 10 км при отсутствии осадков обычно наблюдается дымка, при ухудшении видимости до 1 км и менее - туман. В сухую погоду видимость может ухудшаться дымом, пылью или мглою.
Явления - указаны атмосферные явления, наблюдавшиеся в срок или в последний час перед сроком; фигурными скобками обозначены явления, наблюдавшиеся между сроками (за 1-3 часа до срока); квадратными скобками обозначены град или гололедные отложения с указанием их диаметра в мм.
Облачность - указаны через наклонную черту общая и нижняя облачность в баллах и высота нижней границы облаков в метрах; квадратными скобками обозначены формы облаков: Ci - перистые, Cs - перисто-слоистые, Cc - перисто-кучевые, Ac - высококучевые, As - высокослоистые, Sc - слоисто-кучевые, Ns - слоисто-дождевые, Cu - кучевые, Cb - кучево-дождевые. Подробнее классификацию облаков см. в Атласе облаков (PDF).
T - Температура воздуха - температура, измеренная на высоте 2 м над землей.
Td - Температура точки росы - температура, при понижении до которой содержащийся в воздухе водяной пар достигнет насыщения.
f - Относительная влажность воздуха - влажноcть воздуха, измеренная на высоте 2 м над землей.
Te - Эффективная температура - температура, которую ощущает одетый по сезону человек в тени. Характеристика душности погоды. При расчете учитывается влияние влажности воздуха и скорости ветра на теплоощущения человека.
Tes - Эффективная температура на солнце - температура, которую ощущает человек, с поправкой на солнечный нагрев. Характеристика знойности погоды. Зависит от высоты солнца над горизонтом, облачности и скорости ветра. Ночью, в пасмурную погоду, а также при ветре 12 м/с и более поправка равна нулю.
P - Атмосферное давление - приведенное к уровню моря атмосферное давление.
Po - Атмосферное давление - измеренное на уровне метеостанции атмосферное давление.
Tmin - Минимальная температура - минимум температуры воздуха на высоте 2 м над землей.
Tmax - Максимальная температура - максимум температуры воздуха на высоте 2 м над землей.
R - Количество осадков - Количество выпавших осадков за период времени, мм. При наведении курсора мыши на число - период времени, за который выпало указанное количество осадков.
R24 - Количество осадков - Количество выпавших осадков за 24 часа, мм.
S - Снежный покров - Высота снежного покрова, см. При наведении курсора мыши на число - состояние снежного покрова и степень покрытия местности в баллах.